Location: Breitenfeld
(46.8500°N, 15.6333°E)
Time: 01:54:34
(UTC+00:00)

Terra - Pass Details

Date: 09 April 2020
Orbit: 701 x 703 km, 98.2° (Epoch: 04 June)

Event Time Altitude Azimuth Distance (km) Brightness Sun altitude
Exits shadow 20:29:30 52° 44° (NE) 878 2.2 -25.9°
Drops below altitude 10° 20:33:37 10° 354° (N) 2,183 5.0 -26.4°
Sets 20:35:55 0° 351° (N) 3,106 6.0 -26.6°
